[[{"header":{"parameterUnit":"m.s-1","parameterCategory":1,"la1":30.2991,"la2":30.254,"lo1":-89.0895,"lo2":-89.0444,"dy":0.0017,"dx":0.0017,"nx":28,"ny":28,"refTime":"2025-09-15T03:00:00:Z","depth":0,"parameterNumber":2,"parameterNumberName":"U-component_of_WINDS"},"data":[0,0,0,0,0,0,0,0,0,0,0,0,0,0,0,0,0,0,0,0,0,0,0,0,0,0,0,0,0,0,0,0,0,0,0,0,0,0,0,0,0,0,0,0,0,0,0,0,0,0,0,0,0,0,0,0,0,0,-0.7333,-0.7334,0,-0.7451,-0.7453,-0.7454,-0.7532,-0.7533,-0.7533,-0.7534,-0.7656,-0.7659,-0.7662,0,0,0,0,0,0,0,0,0,0,0,0,0,-0.7176,-0.7178,-0.7333,-0.7334,-0.7336,-0.7451,-0.7453,-0.7454,-0.7532,-0.7533,-0.7534,-0.7534,-0.7655,-0.7659,-0.7662,0,0,0,0,0,0,0,0,0,0,0,0,0,-0.7264,-0.7179,-0.7333,-0.7389,-0.7395,-0.7451,-0.7453,-0.7455,-0.7532,-0.7533,-0.7534,-0.7534,-0.7654,-0.7658,-0.7662,-0.7672,0,0,-0.7675,-0.7677,0,0,0,0,0,0,0,0,-0.7259,-0.727,-0.7379,-0.7385,-0.7392,-0.7478,-0.7442,-0.7528,-0.7532,-0.748,-0.7534,-0.7535,-0.7596,-0.7605,-0.7626,-0.7678,-0.7683,-0.7675,-0.7678,-0.768,-0.7681,0,0,0,0,0,0,0,-0.7253,-0.7265,-0.738,-0.738,-0.7388,-0.7408,-0.7422,-0.7459,-0.7532,-0.7485,-0.7491,-0.7503,-0.76,-0.7622,-0.7629,-0.7685,-0.7675,-0.7679,-0.7682,-0.7683,-0.7752,-0.7752,0,0,0,0,0,0,-0.7238,-0.7259,-0.7376,-0.7383,-0.7326,-0.741,-0.7425,-0.7449,-0.7532,-0.7546,-0.7503,-0.7507,-0.7614,-0.7624,-0.7634,-0.7651,-0.768,-0.7684,-0.7686,-0.7753,-0.7752,-0.7751,0,0,0,0,0,0,-0.7234,-0.7247,-0.7371,-0.7323,-0.734,-0.7412,-0.7439,-0.7451,-0.7473,-0.7546,-0.7559,-0.7511,-0.7615,-0.7628,-0.7662,-0.7657,-0.7686,-0.7689,-0.7754,-0.7753,-0.7752,-0.7686,0,0,0,0,0,0,-0.7229,-0.7245,-0.725,-0.7323,-0.7343,-0.7397,-0.7438,-0.7453,-0.748,-0.7486,-0.7557,-0.757,-0.7617,-0.7656,-0.7666,-0.7663,-0.7693,-0.7754,-0.7753,-0.7752,-0.7689,-0.7683,-0.7677,0,0,0,0,0,-0.7223,-0.7227,-0.7249,-0.7263,-0.7349,-0.7397,-0.7408,-0.7462,-0.7479,-0.7484,-0.7531,-0.7568,-0.7655,-0.7658,-0.7671,-0.7669,-0.7755,-0.7754,-0.7752,-0.7691,-0.7684,-0.7678,0,0,0,0,0,0,-0.7152,-0.7237,-0.7264,-0.7291,-0.7336,-0.741,-0.7418,-0.7452,-0.7493,-0.7498,-0.7563,-0.7578,-0.7606,-0.7641,-0.7643,-0.7683,-0.771,-0.7711,-0.7659,-0.7653,-0.7647,-0.7638,-0.7696,0,0,0,0,0,-0.7139,-0.7169,-0.7243,-0.726,-0.7281,-0.7345,-0.7368,-0.7405,-0.7455,-0.7474,-0.7524,-0.757,-0.7609,-0.7633,-0.7672,-0.7694,-0.7711,-0.7699,-0.7693,-0.7688,-0.7688,-0.7703,-0.7699,-0.7746,-0.7746,-0.7747,0,0,-0.7113,-0.7164,-0.7179,-0.7247,-0.7286,-0.7317,-0.7361,-0.7391,-0.7415,-0.7479,-0.7514,-0.7552,-0.7609,-0.7637,-0.7652,-0.7667,-0.7679,-0.7686,-0.7682,-0.7685,-0.7701,-0.7697,-0.7692,-0.7745,-0.7746,-0.7746,0,0,-0.7082,-0.7123,-0.7141,-0.718,-0.7239,-0.7281,-0.7285,-0.7355,-0.7382,-0.7418,-0.7467,-0.7496,-0.7561,-0.7599,-0.7627,-0.7611,-0.7646,-0.7622,-0.7592,-0.7606,-0.7602,-0.7599,-0.7593,-0.759,-0.7621,-0.7621,-0.7621,0,-0.7042,-0.709,-0.7147,-0.7174,-0.7203,-0.7262,-0.7281,-0.7316,-0.7385,-0.7403,-0.7419,-0.7501,-0.7544,-0.7582,-0.7578,-0.7599,-0.7606,-0.7614,-0.7598,-0.7595,-0.7593,-0.7588,-0.7586,-0.7618,-0.7618,-0.7619,-0.7619,0,-0.7039,-0.7071,-0.7079,-0.7143,-0.7173,-0.7196,-0.7257,-0.728,-0.7314,-0.7355,-0.7392,-0.7445,-0.7496,-0.7508,-0.7542,-0.7551,-0.7559,-0.7585,-0.7613,-0.7584,-0.7581,-0.758,-0.7613,-0.7614,-0.7615,-0.7616,0,0,-0.6965,-0.7061,-0.7063,-0.7093,-0.7162,-0.7188,-0.7215,-0.7264,-0.7283,-0.7328,-0.7352,-0.7405,-0.743,-0.7462,-0.7502,-0.7513,-0.7497,-0.7539,-0.7541,-0.7529,-0.751,-0.749,-0.7487,-0.7521,-0.7521,-0.7521,-0.7506,0,-0.6944,-0.6994,-0.7046,-0.7078,-0.7109,-0.7165,-0.7188,-0.7233,-0.7272,-0.7305,-0.7348,-0.7385,-0.7415,-0.7435,-0.7449,-0.7496,-0.7494,-0.7498,-0.7544,-0.7545,-0.7528,-0.7485,-0.7464,-0.7447,-0.7505,-0.7504,-0.7504,0,-0.6927,-0.6969,-0.7003,-0.707,-0.7085,-0.7104,-0.7154,-0.7184,-0.7237,-0.7265,-0.73,-0.7341,-0.7373,-0.7397,-0.7441,-0.7442,-0.7464,-0.749,-0.7491,-0.7497,-0.7523,-0.749,-0.7443,-0.744,-0.7503,-0.7503,-0.7503,0,-0.687,-0.6935,-0.6965,-0.6989,-0.7067,-0.7079,-0.7113,-0.7166,-0.7193,-0.7236,-0.7254,-0.7301,-0.7326,-0.7362,-0.7415,-0.7428,-0.7454,-0.7482,-0.7478,-0.7477,-0.7481,-0.748,-0.7436,-0.7495,-0.7495,-0.7495,-0.7495,0,-0.6841,-0.686,-0.694,-0.6958,-0.6981,-0.7041,-0.7062,-0.71,-0.7147,-0.7174,-0.7226,-0.725,-0.7319,-0.7352,-0.7394,-0.7424,-0.7435,-0.7459,-0.747,-0.7454,-0.7451,-0.747,-0.7472,-0.7494,-0.7495,-0.7495,-0.7495,0,-0.6781,-0.6836,-0.6871,-0.6942,-0.6961,-0.6974,-0.7036,-0.7056,-0.7098,-0.7131,-0.7142,-0.7208,-0.7249,-0.7306,-0.7365,-0.7393,-0.7418,-0.7435,-0.74,-0.7406,-0.7399,-0.7398,-0.7365,-0.7364,-0.7423,-0.7422,-0.7422,0,-0.6759,-0.6775,-0.6848,-0.6869,-0.69,-0.6934,-0.6962,-0.7021,-0.7047,-0.7108,-0.7121,-0.7166,-0.7205,-0.7268,-0.7322,-0.7367,-0.7386,-0.7371,-0.7393,-0.7377,-0.7386,-0.7384,-0.7386,-0.7366,-0.7365,-0.7364,-0.7363,0,-0.6714,-0.6741,-0.6777,-0.6824,-0.6855,-0.6894,-0.6936,-0.6951,-0.7019,-0.7046,-0.7089,-0.7119,-0.7179,-0.7223,-0.7275,-0.731,-0.7348,-0.7356,-0.7358,-0.7342,-0.732,-0.7332,-0.7385,-0.7357,-0.7357,-0.7358,-0.7358,-0.7358,-0.6673,-0.669,-0.6743,-0.6783,-0.6821,-0.6859,-0.6881,-0.6925,-0.6962,-0.7014,-0.7048,-0.7088,-0.7141,-0.7215,-0.7249,-0.7282,-0.7297,-0.7299,-0.73,-0.7299,-0.7294,-0.7315,-0.7292,-0.7292,-0.7292,-0.7293,-0.7293,0,-0.6631,-0.6668,-0.6704,-0.6761,-0.6792,-0.6824,-0.6873,-0.6897,-0.6932,-0.6978,-0.7015,-0.7064,-0.7107,-0.7164,-0.7211,-0.7227,-0.7245,-0.7237,-0.7237,-0.7244,-0.7278,-0.7272,-0.7221,-0.7221,-0.7221,-0.7221,-0.7221,-0.7221,-0.6613,-0.6643,-0.6675,-0.6724,-0.6762,-0.6802,-0.6827,-0.6862,-0.6899,-0.6951,-0.6987,-0.7023,-0.7074,-0.7125,-0.7167,-0.7183,-0.7198,-0.7184,-0.7205,-0.7235,-0.7242,-0.7248,-0.7243,-0.7187,-0.7187,-0.7169,-0.7168,-0.7168]},{"header":{"parameterUnit":"m.s-1","parameterCategory":1,"la1":30.2991,"la2":30.254,"lo1":-89.0895,"lo2":-89.0444,"dy":0.0017,"dx":0.0017,"nx":28,"ny":28,"refTime":"2025-09-15T03:00:00:Z","depth":0,"parameterNumber":3,"parameterNumberName":"V-component_of_WINDS"},"data":[0,0,0,0,0,0,0,0,0,0,0,0,0,0,0,0,0,0,0,0,0,0,0,0,0,0,0,0,0,0,0,0,0,0,0,0,0,0,0,0,0,0,0,0,0,0,0,0,0,0,0,0,0,0,0,0,0,0,-1.6854,-1.6853,0,-1.6796,-1.6796,-1.6795,-1.6735,-1.6734,-1.6733,-1.6733,-1.6671,-1.667,-1.667,0,0,0,0,0,0,0,0,0,0,0,0,0,-1.691,-1.6909,-1.6854,-1.6853,-1.6852,-1.6796,-1.6796,-1.6795,-1.6735,-1.6734,-1.6733,-1.6732,-1.6672,-1.6671,-1.667,0,0,0,0,0,0,0,0,0,0,0,0,0,-1.6872,-1.6909,-1.6854,-1.6816,-1.6812,-1.6797,-1.6796,-1.6795,-1.6735,-1.6734,-1.6733,-1.6732,-1.6672,-1.6671,-1.6669,-1.6686,0,0,-1.6665,-1.6665,0,0,0,0,0,0,0,0,-1.6875,-1.687,-1.6822,-1.6818,-1.6814,-1.6772,-1.6793,-1.6758,-1.6736,-1.6764,-1.6733,-1.6731,-1.6705,-1.6701,-1.6693,-1.6683,-1.6681,-1.6665,-1.6665,-1.6664,-1.6664,0,0,0,0,0,0,0,-1.6877,-1.6873,-1.6831,-1.6821,-1.6816,-1.6801,-1.6794,-1.6786,-1.6742,-1.6762,-1.6757,-1.6751,-1.6703,-1.6695,-1.6691,-1.668,-1.6665,-1.6664,-1.6663,-1.6663,-1.6684,-1.6685,0,0,0,0,0,0,-1.6886,-1.6875,-1.6833,-1.6829,-1.6842,-1.6801,-1.6794,-1.6786,-1.6742,-1.6735,-1.6753,-1.6749,-1.6697,-1.6693,-1.6689,-1.6708,-1.6664,-1.6663,-1.6662,-1.6683,-1.6684,-1.6686,0,0,0,0,0,0,-1.6887,-1.6883,-1.6835,-1.6851,-1.6844,-1.6802,-1.6794,-1.6786,-1.6777,-1.6736,-1.6727,-1.6752,-1.6696,-1.6691,-1.6688,-1.6705,-1.6662,-1.6661,-1.6681,-1.6683,-1.6685,-1.6745,0,0,0,0,0,0,-1.6889,-1.6884,-1.689,-1.6852,-1.6843,-1.6836,-1.6795,-1.6786,-1.6776,-1.677,-1.6733,-1.6726,-1.6695,-1.6691,-1.6687,-1.6702,-1.666,-1.6679,-1.6682,-1.6684,-1.6741,-1.6749,-1.6755,0,0,0,0,0,-1.6891,-1.6908,-1.689,-1.6886,-1.685,-1.6837,-1.6832,-1.6797,-1.6777,-1.6783,-1.6757,-1.6727,-1.6704,-1.6691,-1.6686,-1.6701,-1.6678,-1.6681,-1.6684,-1.6738,-1.6747,-1.6755,0,0,0,0,0,0,-1.6947,-1.6902,-1.6882,-1.6886,-1.6866,-1.6827,-1.6833,-1.6807,-1.6791,-1.6787,-1.6743,-1.6735,-1.6739,-1.6719,-1.6706,-1.6717,-1.6687,-1.6689,-1.6729,-1.6738,-1.6744,-1.6749,-1.6659,0,0,0,0,0,-1.696,-1.6954,-1.6914,-1.6922,-1.6913,-1.6875,-1.6868,-1.6843,-1.682,-1.681,-1.6783,-1.6762,-1.6749,-1.6742,-1.6728,-1.6738,-1.673,-1.6746,-1.6753,-1.6759,-1.6762,-1.6768,-1.6775,-1.6695,-1.6695,-1.6695,0,0,-1.6987,-1.6961,-1.6959,-1.6933,-1.6914,-1.6909,-1.6868,-1.6863,-1.6859,-1.6809,-1.6806,-1.6786,-1.6758,-1.6763,-1.6763,-1.6747,-1.6782,-1.6763,-1.6768,-1.6767,-1.6772,-1.6779,-1.6786,-1.6697,-1.6697,-1.6697,0,0,-1.7033,-1.7012,-1.7017,-1.7,-1.6973,-1.6948,-1.695,-1.6914,-1.6899,-1.6896,-1.6859,-1.6853,-1.6833,-1.6816,-1.6804,-1.6846,-1.6819,-1.6843,-1.6879,-1.6885,-1.6892,-1.6897,-1.6914,-1.692,-1.6846,-1.6846,-1.6846,0,-1.7069,-1.7059,-1.7023,-1.7021,-1.7011,-1.6968,-1.6974,-1.6958,-1.6928,-1.6922,-1.6904,-1.688,-1.6858,-1.6859,-1.687,-1.6861,-1.6862,-1.6847,-1.6894,-1.6899,-1.6903,-1.6919,-1.6925,-1.6849,-1.6849,-1.6848,-1.6848,0,-1.7106,-1.71,-1.7108,-1.7082,-1.7072,-1.7074,-1.7038,-1.7033,-1.701,-1.6987,-1.6985,-1.6958,-1.6939,-1.6937,-1.6913,-1.6935,-1.6926,-1.6902,-1.6871,-1.6915,-1.6929,-1.6934,-1.6854,-1.6853,-1.6852,-1.6851,0,0,-1.7184,-1.714,-1.7143,-1.7132,-1.71,-1.7094,-1.7095,-1.7078,-1.7075,-1.7056,-1.7056,-1.7041,-1.7019,-1.7007,-1.6981,-1.6986,-1.7024,-1.6961,-1.696,-1.6975,-1.7049,-1.7068,-1.7076,-1.7005,-1.7006,-1.7007,-1.7052,0,-1.7225,-1.7225,-1.7193,-1.7201,-1.7196,-1.7156,-1.7157,-1.7138,-1.7117,-1.7109,-1.7086,-1.7077,-1.7048,-1.704,-1.7044,-1.7019,-1.7038,-1.7015,-1.7006,-1.7006,-1.7015,-1.7083,-1.7102,-1.7146,-1.7057,-1.7058,-1.7058,0,-1.7273,-1.7259,-1.7267,-1.7237,-1.7234,-1.7235,-1.7218,-1.7212,-1.7189,-1.7174,-1.7161,-1.7133,-1.7132,-1.7102,-1.7101,-1.7086,-1.708,-1.7068,-1.7069,-1.7067,-1.7035,-1.7084,-1.7158,-1.7166,-1.7066,-1.7065,-1.7065,0,-1.7332,-1.7314,-1.7317,-1.7309,-1.7273,-1.7275,-1.7261,-1.7237,-1.723,-1.7215,-1.721,-1.7195,-1.7187,-1.7176,-1.7145,-1.7126,-1.7148,-1.7115,-1.7136,-1.7137,-1.7142,-1.7143,-1.7218,-1.7137,-1.7137,-1.7137,-1.7137,0,-1.7381,-1.7388,-1.7344,-1.7346,-1.7353,-1.7317,-1.7325,-1.7306,-1.7286,-1.7284,-1.7248,-1.7247,-1.7205,-1.7199,-1.7174,-1.7178,-1.7174,-1.7162,-1.7156,-1.7166,-1.7168,-1.7163,-1.7159,-1.7138,-1.7138,-1.7138,-1.7137,0,-1.7448,-1.7418,-1.7419,-1.7387,-1.7379,-1.7386,-1.7358,-1.7358,-1.7336,-1.7334,-1.7332,-1.7297,-1.7288,-1.7256,-1.7239,-1.7223,-1.7235,-1.7222,-1.7243,-1.7239,-1.7262,-1.7261,-1.7338,-1.7347,-1.7259,-1.726,-1.7261,0,-1.7482,-1.7487,-1.7456,-1.7452,-1.744,-1.7435,-1.7428,-1.7393,-1.7387,-1.7364,-1.7368,-1.7357,-1.7347,-1.7336,-1.7309,-1.7296,-1.7283,-1.7311,-1.7281,-1.7292,-1.7286,-1.7286,-1.7287,-1.7318,-1.7319,-1.732,-1.732,0,-1.7547,-1.7533,-1.7524,-1.7512,-1.7505,-1.7493,-1.7479,-1.7478,-1.744,-1.7435,-1.7427,-1.742,-1.7404,-1.7394,-1.7378,-1.7363,-1.7336,-1.733,-1.7335,-1.7346,-1.7359,-1.7354,-1.7263,-1.7328,-1.7328,-1.7327,-1.7327,-1.7326,-1.7599,-1.7603,-1.7582,-1.7575,-1.7561,-1.7549,-1.7549,-1.7528,-1.7521,-1.7506,-1.7486,-1.7481,-1.7461,-1.7437,-1.7424,-1.742,-1.7404,-1.741,-1.7412,-1.7414,-1.7421,-1.7359,-1.7417,-1.7416,-1.7416,-1.7416,-1.7416,0,-1.7663,-1.7649,-1.7642,-1.7625,-1.762,-1.7596,-1.758,-1.7577,-1.7574,-1.7557,-1.7548,-1.7541,-1.7532,-1.7505,-1.7494,-1.7496,-1.7483,-1.7494,-1.7494,-1.7492,-1.7434,-1.7432,-1.7505,-1.7505,-1.7505,-1.7505,-1.7505,-1.7505,-1.7696,-1.7702,-1.7685,-1.7684,-1.7669,-1.7665,-1.7658,-1.7648,-1.7635,-1.7628,-1.7621,-1.7604,-1.7584,-1.7571,-1.7563,-1.7555,-1.7553,-1.7568,-1.7557,-1.7504,-1.7495,-1.7487,-1.7485,-1.7568,-1.7568,-1.7615,-1.7616,-1.7616]}]]